Location: Vihti�l�
(61.3833°N, 23.0667°E)
Time: 03:59:51
(UTC+00:00)

ADEOS - Pass Details

Date: 29 November 2020
Orbit: 792 x 795 km, 98.9° (Epoch: 19 January)

Event Time Altitude Azimuth Distance (km) Brightness Sun altitude
Rises 04:22:02 0° 19° (NNE) 3,315 6.9 -18.1°
Reaches altitude 10° 04:24:24 10° 15° (NNE) 2,381 6.1 -17.8°
Maximum altitude 04:29:32 56° 299° (WNW) 950 3.6 -17.2°
Drops below altitude 10° 04:34:37 10° 223° (SW) 2,366 5.8 -16.6°
Sets 04:36:58 0° 219° (SW) 3,292 6.5 -16.4°
